Tiempo cada hora Czyste

Hoy, 31 Julio, Sábado

Tiempo Temperatura Precipitaciones Viento Presión Humedad
00:00 +16°C° 0 mm 2 mps 742 mmHg 69%
01:00 +15°C° 0 mm 2 mps 742 mmHg 71%
02:00 +15°C° 0 mm 2 mps 742 mmHg 72%
03:00 +15°C° 0 mm 2 mps 742 mmHg 72%
04:00 +15°C° 0 mm 2 mps 742 mmHg 72%
05:00 +17°C° 0 mm 3 mps 741 mmHg 68%
06:00 +18°C° 0 mm 3 mps 741 mmHg 65%
07:00 +20°C° 0 mm 4 mps 741 mmHg 62%
08:00 +22°C° 0 mm 4 mps 741 mmHg 57%
09:00 +25°C° 0 mm 5 mps 741 mmHg 52%
10:00 +27°C° 0 mm 6 mps 741 mmHg 47%
11:00 +27°C° 0.1 mm 6 mps 741 mmHg 44%
12:00 +27°C° 0.1 mm 5 mps 741 mmHg 42%
13:00 +27°C° 0.1 mm 5 mps 741 mmHg 40%
14:00 +26°C° 0 mm 5 mps 741 mmHg 39%
15:00 +26°C° 0 mm 5 mps 740 mmHg 39%
16:00 +26°C° 0 mm 5 mps 740 mmHg 38%
17:00 +25°C° 0 mm 5 mps 741 mmHg 42%
18:00 +23°C° 0 mm 5 mps 741 mmHg 46%
19:00 +21°C° 0 mm 5 mps 741 mmHg 50%
20:00 +20°C° 0 mm 5 mps 741 mmHg 54%
21:00 +19°C° 0 mm 5 mps 741 mmHg 57%
22:00 +17°C° 0 mm 5 mps 741 mmHg 61%
23:00 +17°C° 0 mm 5 mps 742 mmHg 66%

Mañana, 1 Agosto, Domingo

Tiempo Temperatura Precipitaciones Viento Presión Humedad
00:00 +16°C° 0 mm 5 mps 742 mmHg 71%
01:00 +17°C° 0 mm 4 mps 742 mmHg 75%
02:00 +15°C° 0 mm 4 mps 742 mmHg 78%
03:00 +15°C° 0 mm 4 mps 742 mmHg 81%
04:00 +14°C° 0 mm 4 mps 742 mmHg 84%
05:00 +15°C° 0 mm 4 mps 742 mmHg 81%
06:00 +17°C° 0 mm 4 mps 742 mmHg 78%
07:00 +17°C° 0 mm 4 mps 743 mmHg 75%
08:00 +19°C° 0 mm 5 mps 743 mmHg 68%
09:00 +20°C° 0 mm 5 mps 743 mmHg 60%
10:00 +22°C° 0 mm 5 mps 743 mmHg 53%
11:00 +22°C° 0 mm 5 mps 743 mmHg 50%
12:00 +23°C° 0 mm 5 mps 743 mmHg 48%
13:00 +23°C° 0 mm 5 mps 743 mmHg 45%
14:00 +23°C° 0 mm 4 mps 743 mmHg 48%
15:00 +22°C° 0 mm 4 mps 743 mmHg 50%
16:00 +22°C° 0 mm 3 mps 743 mmHg 52%
17:00 +21°C° 0.2 mm 3 mps 743 mmHg 59%
18:00 +20°C° 0.2 mm 2 mps 743 mmHg 66%
19:00 +19°C° 0.2 mm 2 mps 743 mmHg 73%
20:00 +18°C° 0 mm 2 mps 743 mmHg 77%
21:00 +18°C° 0 mm 1 mps 743 mmHg 82%
22:00 +16°C° 0 mm 1 mps 743 mmHg 86%
23:00 +15°C° 0 mm 1 mps 743 mmHg 88%

Pasado mañana, 2 Agosto, Lunes

Tiempo Temperatura Precipitaciones Viento Presión Humedad
00:00 +15°C° 0 mm 1 mps 743 mmHg 89%
01:00 +15°C° 0 mm 1 mps 743 mmHg 91%
02:00 +14°C° 0 mm 2 mps 743 mmHg 92%
03:00 +14°C° 0 mm 2 mps 743 mmHg 92%
04:00 +14°C° 0 mm 2 mps 743 mmHg 93%
05:00 +15°C° 0 mm 2 mps 743 mmHg 88%
06:00 +16°C° 0 mm 3 mps 743 mmHg 83%
07:00 +18°C° 0 mm 3 mps 743 mmHg 78%
08:00 +19°C° 0.3 mm 3 mps 743 mmHg 73%
09:00 +20°C° 0.3 mm 4 mps 743 mmHg 68%
10:00 +21°C° 0.3 mm 4 mps 743 mmHg 64%
11:00 +20°C° 0.4 mm 4 mps 743 mmHg 63%
12:00 +20°C° 0.4 mm 5 mps 744 mmHg 63%
13:00 +20°C° 0.4 mm 5 mps 744 mmHg 63%
14:00 +20°C° 0 mm 5 mps 744 mmHg 59%
15:00 +20°C° 0 mm 5 mps 744 mmHg 55%
16:00 +20°C° 0 mm 4 mps 744 mmHg 51%
17:00 +19°C° 0 mm 4 mps 744 mmHg 53%
18:00 +19°C° 0 mm 4 mps 745 mmHg 55%
19:00 +18°C° 0 mm 3 mps 745 mmHg 58%
20:00 +17°C° 0 mm 3 mps 745 mmHg 63%
21:00 +16°C° 0 mm 3 mps 745 mmHg 68%
22:00 +14°C° 0 mm 3 mps 745 mmHg 73%
23:00 +13°C° 0 mm 3 mps 746 mmHg 76%

3 Agosto, Martes

Tiempo Temperatura Precipitaciones Viento Presión Humedad
00:00 +13°C° 0 mm 3 mps 746 mmHg 79%
01:00 +12°C° 0 mm 3 mps 746 mmHg 82%
02:00 +12°C° 0 mm 3 mps 746 mmHg 85%
03:00 +12°C° 0 mm 3 mps 746 mmHg 88%
04:00 +12°C° 0 mm 3 mps 746 mmHg 91%
05:00 +13°C° 0 mm 3 mps 747 mmHg 85%
06:00 +15°C° 0 mm 4 mps 747 mmHg 79%
07:00 +17°C° 0 mm 4 mps 747 mmHg 74%
08:00 +19°C° 0 mm 4 mps 747 mmHg 65%
09:00 +20°C° 0 mm 4 mps 747 mmHg 55%
10:00 +22°C° 0 mm 4 mps 747 mmHg 46%
11:00 +23°C° 0 mm 4 mps 747 mmHg 42%
12:00 +23°C° 0 mm 4 mps 747 mmHg 37%
13:00 +25°C° 0 mm 4 mps 747 mmHg 32%
14:00 +25°C° 0 mm 4 mps 747 mmHg 32%
15:00 +25°C° 0 mm 4 mps 747 mmHg 32%
16:00 +25°C° 0 mm 3 mps 747 mmHg 31%
17:00 +24°C° 0 mm 3 mps 747 mmHg 39%
18:00 +21°C° 0 mm 2 mps 747 mmHg 46%
19:00 +20°C° 0 mm 2 mps 747 mmHg 54%
20:00 +19°C° 0 mm 2 mps 747 mmHg 60%
21:00 +18°C° 0 mm 2 mps 747 mmHg 65%
22:00 +17°C° 0 mm 2 mps 747 mmHg 71%
23:00 +17°C° 0 mm 2 mps 747 mmHg 73%

4 Agosto, Miércoles

Tiempo Temperatura Precipitaciones Viento Presión Humedad
00:00 +17°C° 0 mm 2 mps 747 mmHg 75%
01:00 +18°C° 0 mm 1 mps 747 mmHg 77%
02:00 +16°C° 0.5 mm 1 mps 747 mmHg 83%
03:00 +16°C° 0.5 mm 1 mps 746 mmHg 88%
04:00 +15°C° 0.5 mm 1 mps 746 mmHg 94%
05:00 +15°C° 0.9 mm 2 mps 746 mmHg 94%
06:00 +15°C° 0.9 mm 2 mps 746 mmHg 95%
07:00 +15°C° 0.9 mm 2 mps 746 mmHg 96%
08:00 +16°C° 0.2 mm 2 mps 746 mmHg 94%
09:00 +16°C° 0.2 mm 2 mps 746 mmHg 92%
10:00 +17°C° 0.2 mm 2 mps 746 mmHg 90%
11:00 +18°C° 0.5 mm 3 mps 746 mmHg 84%
12:00 +19°C° 0.5 mm 3 mps 746 mmHg 79%
13:00 +20°C° 0.5 mm 3 mps 745 mmHg 73%
14:00 +20°C° 0.3 mm 3 mps 745 mmHg 69%
15:00 +21°C° 0.3 mm 3 mps 745 mmHg 65%
16:00 +22°C° 0.3 mm 3 mps 745 mmHg 61%
17:00 +21°C° 0 mm 2 mps 745 mmHg 65%
18:00 +20°C° 0 mm 2 mps 745 mmHg 69%
19:00 +19°C° 0 mm 2 mps 745 mmHg 73%
20:00 +18°C° 0 mm 2 mps 745 mmHg 77%
21:00 +17°C° 0 mm 2 mps 745 mmHg 82%
22:00 +15°C° 0 mm 2 mps 745 mmHg 87%
23:00 +15°C° 0 mm 2 mps 745 mmHg 89%

5 Agosto, Jueves

Tiempo Temperatura Precipitaciones Viento Presión Humedad
00:00 +15°C° 0 mm 2 mps 744 mmHg 91%
01:00 +14°C° 0 mm 2 mps 744 mmHg 93%
02:00 +14°C° 0 mm 1 mps 744 mmHg 94%
03:00 +14°C° 0 mm 1 mps 744 mmHg 95%
04:00 +14°C° 0 mm 1 mps 744 mmHg 96%
05:00 +15°C° 0 mm 1 mps 744 mmHg 90%
06:00 +16°C° 0 mm 1 mps 744 mmHg 85%
07:00 +18°C° 0 mm 1 mps 743 mmHg 79%
08:00 +19°C° 0 mm 1 mps 743 mmHg 74%
09:00 +21°C° 0 mm 1 mps 743 mmHg 69%
10:00 +22°C° 0 mm 1 mps 743 mmHg 64%
11:00 +22°C° 0.2 mm 1 mps 743 mmHg 62%
12:00 +21°C° 0.2 mm 2 mps 743 mmHg 60%
13:00 +21°C° 0.2 mm 2 mps 743 mmHg 58%
14:00 +23°C° 0.1 mm 2 mps 742 mmHg 56%
15:00 +23°C° 0.1 mm 2 mps 742 mmHg 54%
16:00 +23°C° 0.1 mm 1 mps 742 mmHg 51%
17:00 +22°C° 0 mm 1 mps 742 mmHg 56%
18:00 +21°C° 0 mm 1 mps 741 mmHg 60%
19:00 +20°C° 0 mm 1 mps 741 mmHg 65%
20:00 +20°C° 0 mm 1 mps 741 mmHg 67%
21:00 +19°C° 0 mm 1 mps 741 mmHg 69%
22:00 +19°C° 0 mm 1 mps 741 mmHg 71%
23:00 +17°C° 0 mm 2 mps 741 mmHg 74%
Mostrar más

Necesitamos Su Consentimiento

Meteoprog y nuestros Proveedores de Servicios pueden almacenar y acceder a sus datos personales como cookies, identificadores de dispositivo u otras tecnologías similares de su dispositivo y procesar dichos datos para personalizar contenido y anuncios, además de ofrecer funciones de redes sociales y analizar el tráfico.

  • Almacenar y/o acceder a información en su dispositivo

    Se puede almacenar o acceder a cookies, identificadores de dispositivo u otra información de su dispositivo para los fines anteriormente indicados.

  • Anuncios y contenido personalizados, medición de anuncios y contenido, percepciones del público, y desarrollo de productos

    Los anuncios y el contenido pueden personalizarse en base a su perfil. Se pueden añadir más datos para personalizar mejor los anuncios y contenidos. Se puede medir el rendimiento de los anuncios y contenidos. Se puede obtener la percepción sobre el público que ha visto los anuncios y contenidos. Dichos datos pueden usarse para desarrollar o mejorar la experiencia del usuario, sistemas y software.

Al hacer clic en ‘Estoy De Acuerdo’ usted permitirá el uso de las cookies, identificadores de dispositivo, balizas web u otras tecnologías similares indicadas. Su configuración puede cambiarse desde el navegador de su dispositivo.

Para ciertos fines, los intereses legítimos pueden ser considerados por encima del consentimiento. Puede leer más sobre ello en nuestra Política de Privacidad y Cookies.